Kahului Airport


Codes: PHOG/OGG
Name: Kahului Airport
City: Kahului
Country: United States
Elevation: 54 ft.
Wikipedia:

Photos at Kahului Airport


   Photos courtesy of SpottingLog. You can add your own sightings and photos by signing up for a free trial today.



No photos found.

Weather at Kahului Airport


Time (UTC)DescriptionTempratureWindCloud coverageVisibilityPressureHumidity
18-Apr-2024 00:00Clear Sky25°C4 mph, NE1%10000m1019hPa68%
18-Apr-2024 03:00Clear Sky25°C7 mph, NE2%10000m1017hPa67%
18-Apr-2024 06:00Clear Sky23°C7 mph, NE4%10000m1018hPa75%
18-Apr-2024 09:00Light Rain23°C7 mph, NE8%10000m1019hPa77%
18-Apr-2024 12:00Light Rain22°C7 mph, NE13%10000m1017hPa77%
18-Apr-2024 15:00Few Clouds22°C7 mph, NE16%10000m1018hPa77%
18-Apr-2024 18:00Light Rain23°C9 mph, NE10%10000m1019hPa71%
18-Apr-2024 21:00Light Rain25°C9 mph, NE20%10000m1019hPa67%
19-Apr-2024 00:00Few Clouds24°C7 mph, NE17%10000m1018hPa69%
19-Apr-2024 03:00Light Rain24°C11 mph, NE21%10000m1017hPa69%
19-Apr-2024 06:00Few Clouds23°C11 mph, NE19%10000m1019hPa78%
19-Apr-2024 09:00Light Rain23°C13 mph, NE47%10000m1020hPa80%
19-Apr-2024 12:00Light Rain22°C13 mph, NE58%10000m1019hPa80%
19-Apr-2024 15:00Light Rain22°C13 mph, NE39%10000m1019hPa82%
19-Apr-2024 18:00Light Rain23°C13 mph, NE37%10000m1020hPa77%
19-Apr-2024 21:00Light Rain24°C13 mph, NE56%10000m1020hPa73%
20-Apr-2024 00:00Light Rain24°C11 mph, NE45%10000m1018hPa71%
20-Apr-2024 03:00Scattered Clouds24°C13 mph, NE49%10000m1018hPa70%
20-Apr-2024 06:00Light Rain23°C13 mph, NE54%10000m1019hPa78%
20-Apr-2024 09:00Light Rain22°C11 mph, E51%10000m1020hPa77%
20-Apr-2024 12:00Broken Clouds22°C11 mph, E57%10000m1018hPa77%
20-Apr-2024 15:00Broken Clouds22°C9 mph, E61%10000m1018hPa77%
20-Apr-2024 18:00Light Rain23°C11 mph, E41%10000m1020hPa70%
20-Apr-2024 21:00Clear Sky25°C9 mph, E10%10000m1019hPa64%
21-Apr-2024 00:00Few Clouds25°C9 mph, NE18%10000m1018hPa66%
21-Apr-2024 03:00Scattered Clouds24°C9 mph, NE29%10000m1018hPa70%
21-Apr-2024 06:00Scattered Clouds23°C11 mph, NE40%10000m1019hPa74%
21-Apr-2024 09:00Scattered Clouds23°C11 mph, E42%10000m1020hPa77%
21-Apr-2024 12:00Scattered Clouds22°C9 mph, E47%10000m1019hPa78%
21-Apr-2024 15:00Broken Clouds22°C11 mph, E60%10000m1019hPa79%
21-Apr-2024 18:00Scattered Clouds23°C11 mph, E44%10000m1020hPa73%
21-Apr-2024 21:00Clear Sky25°C9 mph, NE5%10000m1020hPa66%
22-Apr-2024 00:00Few Clouds25°C9 mph, NE11%10000m1019hPa66%
22-Apr-2024 03:00Clear Sky25°C11 mph, NE10%10000m1018hPa66%
22-Apr-2024 06:00Clear Sky23°C13 mph, NE8%10000m1020hPa76%
22-Apr-2024 09:00Clear Sky23°C13 mph, E8%10000m1020hPa76%
22-Apr-2024 12:00Light Rain22°C11 mph, E11%10000m1019hPa78%
22-Apr-2024 15:00Light Rain22°C11 mph, E29%10000m1019hPa79%
22-Apr-2024 18:00Light Rain23°C13 mph, E41%10000m1020hPa75%
22-Apr-2024 21:00Light Rain24°C13 mph, NE33%10000m1020hPa70%